Weather History for Vero Beach, FL

Change the Weather History Date:

Sunday, August 10, 2014

  Actual Average Record
Temperature  
Mean Temperature 83 °F 82 °F  
Max Temperature 93 °F 90 °F 97 °F (1955)
Min Temperature 72 °F 74 °F 69 °F (1971)
Degree Days  
Heating Degree Days 0 0  
Month to date heating degree days 0 0  
Since 1 June heating degree days 0 0  
Since 1 July heating degree days 0 0  
Cooling Degree Days 18 17  
Month to date cooling degree days 164 170  
Year to date cooling degree days 2012 1950  
Since 1 June cooling degree days 1086 1144  
Growing Degree Days 32 (Base 50)    
Moisture  
Dew Point 73 °F    
Average Humidity 75    
Maximum Humidity 100    
Minimum Humidity 49    
Precipitation  
Precipitation 0.02 in 0.24 in 1.81 in (1990)
Month to date precipitation 2.19 2.14  
Year to date precipitation 29.21 29.81  
Sea Level Pressure  
Sea Level Pressure 30.05 in    
Wind  
Wind Speed 6 mph (SW)    
Max Wind Speed 21 mph    
Max Gust Speed 25 mph    
Visibility 10 miles    
Events Rain , Thunderstorm    
T = Trace of Precipitation, MM = Missing Value Source: NWS Daily Summary

Daily Weather History Graph

Daily Weather History Graph

Search for Another Location

Airport:

Trip Planner

Search our weather history database for the weather conditions in past years. The results will help you decide how hot, cold, wet, or windy it might be!

Date:

Astronomy

Aug. 10, 2014 Rise Set
Actual Time 6:49 AM EDT 8:03 PM EDT
Civil Twilight 6:24 AM EDT 8:28 PM EDT
Nautical Twilight 5:55 AM EDT 8:58 PM EDT
Astronomical Twilight 5:25 AM EDT 9:28 PM EDT
Moon 7:56 PM EDT (8/10) 6:35 AM EDT (8/10)
Length of Visible Light 14h 03m
Length of Day
13h 14m
Full, 100% of the Moon is Illuminated
Aug 10
Full
Aug 10
Full
Aug 17
Last Quarter
Aug 25
New
Sep 2
First Quarter

Hourly Weather History & Observations

Time (EDT) Temp. Heat Index Dew Point Humidity Pressure Visibility Wind Dir Wind Speed Gust Speed Precip Events Conditions
12:53 AM 75.0 °F - 72.0 °F 90% 30.06 in 10.0 mi South 4.6 mph - N/A   Clear
1:53 AM 75.0 °F - 72.0 °F 90% 30.06 in 10.0 mi SSW 3.5 mph - N/A   Clear
2:53 AM 73.9 °F - 72.0 °F 93% 30.04 in 10.0 mi Calm Calm - N/A   Clear
3:53 AM 73.0 °F - 72.0 °F 96% 30.03 in 10.0 mi Calm Calm - N/A   Clear
5:53 AM 73.9 °F - 72.0 °F 93% 30.03 in 10.0 mi South 5.8 mph - N/A   Clear
6:53 AM 73.9 °F - 72.0 °F 93% 30.05 in 10.0 mi SSW 5.8 mph - N/A   Clear
8:53 AM 81.0 °F 87.9 °F 77.0 °F 88% 30.06 in 10.0 mi SSW 6.9 mph - N/A   Clear
9:53 AM 84.0 °F 92.6 °F 75.9 °F 76% 30.07 in 10.0 mi WSW 10.4 mph - N/A   Scattered Clouds
10:53 AM 87.1 °F 96.3 °F 75.0 °F 67% 30.08 in 10.0 mi West 10.4 mph - N/A   Scattered Clouds
11:53 AM 89.1 °F 98.0 °F 73.9 °F 61% 30.08 in 10.0 mi WSW 11.5 mph - N/A   Scattered Clouds
12:53 PM 89.1 °F 96.0 °F 72.0 °F 57% 30.06 in 10.0 mi SW 12.7 mph - N/A   Scattered Clouds
1:53 PM 91.0 °F 98.2 °F 72.0 °F 53% 30.05 in 10.0 mi SW 5.8 mph 17.3 mph N/A   Mostly Cloudy
2:53 PM 91.0 °F 97.6 °F 71.1 °F 52% 30.03 in 10.0 mi WSW 10.4 mph - N/A   Partly Cloudy
3:53 PM 91.0 °F 96.6 °F 70.0 °F 50% 30.01 in 10.0 mi Variable 6.9 mph - N/A   Scattered Clouds
4:53 PM 82.9 °F 87.0 °F 70.0 °F 65% 30.03 in 10.0 mi WNW 17.3 mph 24.2 mph N/A   Overcast
5:12 PM 82.9 °F 88.0 °F 72.0 °F 69% 30.02 in 10.0 mi NW 11.5 mph 21.9 mph N/A Thunderstorm Scattered Clouds
5:53 PM 82.0 °F 86.3 °F 71.1 °F 69% 30.03 in 10.0 mi North 5.8 mph - N/A Thunderstorm Mostly Cloudy
6:53 PM 75.9 °F - 73.9 °F 94% 30.05 in 10.0 mi Calm Calm - 0.01 in Rain Light Rain
7:53 PM 75.9 °F - 73.9 °F 94% 30.04 in 10.0 mi SE 4.6 mph - 0.01 in   Mostly Cloudy
8:53 PM 73.9 °F - 73.0 °F 97% 30.03 in 10.0 mi Calm Calm - N/A   Clear
9:53 PM 73.9 °F - 72.0 °F 93% 30.04 in 10.0 mi Calm Calm - N/A   Clear
10:53 PM 75.0 °F - 72.0 °F 90% 30.05 in 10.0 mi South 3.5 mph - N/A   Clear